GEFSSGP_500_meanwind_168.txt.gz
Wind_Speed
12 12 12 14 15 16 17 19 18 17 15 14 13 12 10 9 8 7 6 6 5 5 5 6 7 8 9 10 10 10 10 10 10 9 9 9 9 9 9 8 8 8 8 8 7 7 7 7 7
11 11 12 13 15 15 17 18 18 17 15 14 14 13 11 9 8 7 6 6 5 4 4 5 6 7 8 8 8 9 9 9 9 9 9 9 9 9 8 8 8 8 7 7 7 7 7 7 7
10 11 11 12 14 15 16 17 17 17 16 15 14 13 11 9 8 7 6 6 4 3 4 4 5 6 6 7 7 7 8 8 9 9 9 9 8 8 8 8 8 8 7 7 7 6 6 6 6
9 9 10 12 14 14 16 16 16 16 16 15 14 14 12 9 7 6 5 5 4 3 3 4 4 5 5 6 6 6 7 7 7 8 8 8 8 8 8 8 8 7 7 6 6 6 6 6 6
7 8 10 11 12 13 15 15 16 16 16 15 14 14 12 10 7 6 6 5 4 3 3 3 4 4 4 5 5 5 6 6 6 6 7 7 7 7 8 8 7 7 6 6 5 5 5 5 5
6 7 8 10 11 12 13 15 15 15 15 14 14 13 12 10 8 7 6 5 3 2 2 3 3 3 3 4 4 4 5 5 5 5 5 6 6 6 7 7 7 6 6 5 5 4 4 5 5
4 5 7 9 9 11 13 14 14 15 15 14 14 13 12 10 8 7 6 4 3 2 2 3 3 3 3 3 3 4 4 4 4 4 4 4 5 5 6 6 6 6 5 4 4 4 4 4 4
3 4 6 7 8 10 11 13 13 14 14 15 14 14 12 10 8 6 6 5 4 2 2 2 3 3 3 3 3 2 3 3 3 2 3 3 3 4 5 5 5 5 5 4 4 4 4 4 4
1 3 4 6 7 8 10 12 12 13 13 14 14 14 12 11 8 6 6 5 4 3 3 3 2 2 2 2 2 2 2 2 2 1 2 2 2 2 3 4 4 4 3 3 3 3 3 4 4
1 2 4 5 6 7 9 10 12 12 13 14 14 14 13 11 9 7 6 6 5 4 4 3 3 1 1 2 1 1 2 2 1 1 0 1 1 1 1 2 2 3 2 2 2 2 2 3 3
2 3 3 4 5 7 8 9 10 12 12 13 14 14 13 11 9 8 7 7 6 5 4 3 3 1 1 1 2 2 2 3 2 2 1 0 0 0 0 1 1 2 2 1 1 1 1 2 2
4 4 4 4 5 6 6 7 9 10 12 12 13 13 13 11 10 9 8 8 6 5 4 3 3 2 1 0 1 3 3 4 4 3 2 2 2 1 1 1 1 0 1 1 1 1 0 1 1
6 6 5 6 5 6 6 6 7 8 10 10 12 13 12 11 10 9 8 8 8 6 5 4 3 2 1 1 2 3 4 4 4 4 4 3 3 3 2 2 2 1 1 1 1 1 1 1 0
7 6 6 6 6 6 6 6 6 7 8 9 11 11 11 12 11 10 8 8 8 7 6 5 4 3 2 3 3 4 4 5 6 6 6 5 4 4 4 4 3 3 3 2 2 2 2 2 1
9 8 8 8 7 6 6 5 6 6 7 8 9 10 10 11 11 10 10 9 9 8 7 7 6 4 4 3 3 4 4 5 6 6 6 6 6 6 5 5 5 4 4 3 4 3 3 2 2
11 10 10 9 9 8 6 5 5 5 6 6 8 8 9 10 11 10 10 9 8 8 8 7 7 6 5 5 4 5 5 5 7 6 7 7 7 7 7 7 6 6 6 5 5 5 5 4 3
13 12 11 11 10 8 7 5 5 5 5 6 7 8 9 10 11 10 9 9 8 8 8 8 8 7 7 6 5 6 6 6 7 8 9 9 9 9 9 9 8 8 8 7 6 7 7 6 5
15 13 13 13 12 11 9 7 6 5 6 6 7 7 8 10 11 10 9 9 8 9 9 9 8 8 7 7 6 7 7 7 8 10 9 9 10 10 10 11 11 10 10 9 8 8 8 8 7
18 16 15 14 14 12 11 9 8 6 6 6 6 7 8 10 10 10 9 9 9 9 9 9 8 8 8 8 8 9 9 8 9 9 10 11 11 11 11 12 12 12 12 11 10 10 10 10 9
19 18 16 16 16 14 12 11 9 8 7 7 6 6 8 10 9 10 11 9 9 10 9 9 8 9 9 9 10 10 9 9 10 10 11 12 12 13 13 14 14 13 13 13 12 12 11 11 11
21 20 19 19 18 17 15 13 12 10 9 8 7 7 8 10 10 10 11 10 10 10 10 9 9 10 11 11 11 10 10 11 10 11 12 13 13 14 15 15 15 15 14 14 14 13 13 13 13
22 21 21 21 21 20 18 16 12 12 11 9 9 8 9 10 11 11 12 11 10 10 10 10 10 11 11 12 12 12 12 12 12 11 11 12 13 14 14 14 15 15 16 16 16 16 15 15 14
23 24 24 24 23 22 20 18 14 14 12 10 9 9 10 11 12 12 12 12 11 10 10 10 10 11 12 12 13 13 13 13 12 12 12 11 13 13 14 14 14 15 16 17 17 17 18 17 17
25 26 27 26 25 24 21 20 16 15 13 12 11 11 12 13 13 13 12 12 12 11 10 11 11 12 13 13 13 14 13 11 10 11 11 12 13 12 13 13 15 16 16 17 17 18 19 19 18
28 27 27 27 26 24 21 21 18 16 15 13 12 11 12 12 12 13 13 12 12 12 12 12 12 13 13 13 13 13 12 11 10 10 10 11 12 12 13 13 14 15 16 17 17 18 19 20 20
28 28 27 27 25 23 22 22 18 17 15 14 12 11 10 11 11 12 12 13 13 13 13 13 13 13 13 13 13 13 12 11 11 11 11 11 12 13 14 14 15 15 16 17 18 19 20 20 21
29 28 27 27 26 25 23 21 18 17 16 15 14 13 12 12 11 11 12 13 13 12 12 13 13 13 13 14 13 13 12 11 10 10 11 11 11 12 13 14 16 16 16 17 18 19 20 21 21
29 28 28 28 27 25 23 20 18 17 16 16 15 13 13 13 12 12 13 13 13 13 13 13 13 13 13 13 13 13 12 10 9 10 10 11 12 13 13 15 16 16 16 17 17 18 19 21 21
29 29 28 28 27 25 23 19 17 17 16 15 14 14 13 12 12 12 12 13 13 13 12 12 12 12 12 12 12 12 11 10 9 9 9 11 11 12 13 15 16 16 17 18 18 19 20 21 21
30 29 27 27 26 24 22 18 16 15 14 14 14 13 12 12 12 11 12 13 12 12 11 11 12 12 12 11 11 10 10 10 10 9 10 11 11 12 14 14 14 15 17 18 19 20 20 21 22

GEFSSGP_500_meanwind_174.txt.gz
Wind_Speed
14 14 14 14 15 14 14 14 14 14 13 12 11 11 11 10 10 10 10 9 8 8 8 8 7 8 8 9 10 10 11 12 12 12 12 12 11 11 10 10 9 9 9 9 9 9 8 8 8
14 14 14 14 15 13 13 14 14 14 13 12 11 11 10 9 9 9 9 9 8 7 7 6 6 7 7 8 9 10 10 11 11 11 11 11 10 10 9 9 9 9 8 8 8 9 9 8 8
13 13 13 14 13 13 13 13 13 13 12 12 11 11 10 9 9 8 8 8 7 6 6 5 5 6 6 7 8 9 10 10 11 10 10 10 10 9 9 9 8 8 8 8 8 8 8 8 8
13 13 14 13 12 12 12 12 12 12 12 11 11 11 10 9 8 7 7 7 6 5 5 4 4 5 6 6 7 8 9 9 10 10 10 9 9 9 9 8 8 8 8 8 7 7 8 7 7
12 14 13 12 11 10 11 11 12 13 12 11 10 10 10 9 8 7 6 6 5 4 4 3 3 3 4 5 6 7 8 8 9 9 9 9 9 8 8 8 7 7 7 7 7 7 7 6 7
12 13 12 10 11 10 11 12 13 14 13 12 11 10 9 9 8 7 5 5 4 3 3 2 2 2 3 4 5 6 7 7 8 8 8 8 8 7 7 7 7 7 6 6 6 6 6 6 6
11 12 11 10 10 10 10 11 12 12 12 12 11 10 10 9 8 7 6 4 4 3 2 1 1 1 2 3 4 5 6 6 7 7 7 7 7 6 6 7 6 6 6 5 6 6 6 6 6
10 11 9 10 10 10 9 10 11 11 12 11 10 10 10 10 8 7 6 5 4 3 2 1 0 1 2 2 3 4 5 5 5 5 5 6 6 5 6 6 6 6 5 5 5 5 5 6 6
9 9 7 8 9 9 9 9 10 10 11 11 11 10 9 9 9 8 6 5 4 2 2 1 0 1 2 2 2 3 4 4 4 4 4 5 5 4 4 5 5 5 5 5 5 5 5 5 5
7 7 6 6 7 7 7 8 9 9 10 11 11 11 9 9 9 8 7 6 4 3 2 1 0 1 2 2 3 3 3 4 4 4 4 4 4 4 4 4 4 4 4 4 4 5 5 4 4
5 5 5 5 6 6 7 7 8 9 10 10 11 10 9 9 8 8 7 6 5 4 2 1 0 1 1 2 2 3 3 3 4 4 4 3 4 4 4 3 3 3 3 3 4 4 4 4 3
4 3 3 4 5 5 6 7 7 8 8 8 8 9 8 8 8 8 7 6 5 4 3 2 1 0 1 2 3 3 4 4 4 4 4 4 4 4 4 3 3 2 2 3 4 4 4 3 3
3 1 1 3 3 3 4 5 5 6 6 6 7 7 7 7 8 7 7 6 5 4 3 2 2 1 1 2 3 3 3 3 4 4 4 4 4 4 4 5 4 3 2 3 4 4 4 3 3
3 2 1 2 2 2 3 4 4 4 4 5 6 7 7 7 7 7 7 6 6 4 3 2 2 2 2 2 2 2 4 4 3 4 4 5 5 5 5 5 5 4 3 3 4 3 3 3 3
5 3 3 2 2 1 2 2 3 3 3 4 5 6 6 7 7 7 7 6 6 5 4 3 3 3 3 3 2 3 4 4 5 5 5 6 6 6 6 6 6 6 5 4 4 5 4 4 3
6 5 5 4 3 1 0 0 1 1 3 4 4 5 5 6 6 6 7 6 6 5 5 5 5 4 4 4 4 4 5 5 5 6 7 8 8 8 8 8 7 7 6 6 5 6 6 6 5
8 7 7 6 4 3 2 2 2 1 2 3 4 4 5 6 6 6 6 5 6 6 5 5 6 5 5 5 5 4 5 5 6 7 9 9 9 9 9 8 8 8 8 7 7 7 7 7 7
11 10 9 8 6 4 4 3 3 3 2 3 4 5 6 6 7 7 6 6 6 6 6 6 6 6 6 6 6 5 6 6 7 7 8 10 11 10 10 10 10 10 10 9 8 8 8 8 8
13 12 11 10 8 6 5 5 5 4 4 4 5 5 6 7 7 7 7 7 7 7 8 7 7 8 8 7 7 7 7 7 7 8 8 9 10 11 11 11 11 11 11 11 10 9 9 9 9
15 14 13 12 10 8 7 6 7 6 5 5 6 7 7 7 7 7 7 8 8 8 9 9 9 9 9 9 8 8 9 9 9 9 10 10 10 11 11 12 11 11 12 12 11 11 11 11 11
17 16 15 14 11 10 8 8 8 7 6 7 7 8 8 8 9 9 9 10 10 10 11 11 11 10 10 10 11 11 10 10 10 10 10 10 11 12 12 12 12 12 12 12 13 13 12 12 12
19 18 17 16 14 13 10 9 10 8 8 8 8 8 9 9 9 10 10 11 11 11 12 12 11 11 11 11 13 13 12 11 11 11 11 10 11 12 11 12 13 13 12 12 14 14 14 14 14
22 20 19 18 16 15 13 11 11 10 9 10 10 9 9 9 10 11 11 11 12 12 12 12 12 11 12 13 14 14 14 13 12 12 12 12 12 13 13 13 13 13 13 13 14 15 16 15 15
23 21 20 19 18 18 15 13 11 11 10 10 10 10 10 10 10 11 11 11 12 12 13 13 12 12 14 14 14 13 13 14 14 13 13 12 12 13 14 14 14 14 14 14 15 15 16 17 17
24 22 21 20 20 18 17 14 13 13 12 11 11 11 12 11 11 11 11 11 12 13 14 13 12 13 13 14 14 14 14 14 14 14 13 13 13 13 13 14 14 15 15 15 16 17 18 18 18
23 23 22 19 17 18 18 16 15 14 13 13 12 12 12 12 12 12 11 11 12 13 14 14 12 12 13 13 13 14 14 15 15 14 14 12 12 12 13 13 14 14 15 16 17 17 18 19 19
25 24 23 21 20 18 19 18 16 15 14 14 14 13 13 14 14 13 13 13 13 14 14 14 13 13 13 14 14 15 15 15 14 14 13 12 11 12 12 12 13 14 15 16 17 18 19 19 20
27 26 25 23 21 19 19 18 16 16 15 15 14 14 14 14 14 14 14 14 14 14 14 14 14 14 14 14 14 15 15 14 13 13 12 12 11 12 12 13 14 14 15 16 17 18 19 19 20
28 27 26 24 24 20 16 17 16 16 15 15 15 15 14 14 14 14 14 14 14 14 14 14 14 14 15 15 15 14 14 14 13 13 13 12 12 13 13 13 13 14 15 16 17 19 20 20 20
29 28 26 25 24 21 17 17 17 16 15 15 15 15 14 15 14 14 14 14 14 14 13 13 14 14 15 15 15 15 14 14 14 13 13 12 11 12 13 13 13 14 15 16 17 19 20 21 20

GEFSSGP_500_meanwind_180.txt.gz
Wind_Speed
18 18 18 17 18 14 11 10 8 7 7 6 6 5 5 6 6 5 6 6 6 6 6 5 5 4 4 4 4 4 5 5 5 6 6 6 7 7 7 8 8 8 8 8 8 8 8 7 7
18 17 18 19 16 12 10 10 9 8 7 6 6 6 6 5 5 5 5 5 5 5 5 5 5 4 4 3 3 3 3 4 4 4 5 5 6 6 7 7 7 7 7 7 7 7 7 7 7
17 16 19 17 11 10 10 9 9 9 8 7 6 6 6 5 5 4 4 5 4 4 4 4 4 4 3 3 2 2 2 3 3 3 3 4 5 5 6 6 6 6 6 6 6 7 7 7 6
17 19 19 13 9 9 9 9 9 9 9 7 7 6 6 5 5 4 4 4 4 4 4 4 4 3 3 3 2 2 2 2 2 2 3 3 4 4 4 5 5 5 5 6 6 6 6 6 6
19 19 14 9 9 8 8 8 9 9 8 7 7 7 6 5 5 4 3 3 3 4 4 3 4 3 3 3 2 2 1 1 1 2 2 2 3 3 4 4 4 5 5 5 5 5 5 5 5
19 15 8 7 7 8 8 8 8 8 9 8 8 7 7 6 5 4 3 3 3 3 3 3 3 3 3 3 2 2 2 1 1 1 1 1 2 2 3 3 4 4 4 5 5 5 4 5 5
17 13 7 7 7 6 6 7 8 9 9 9 8 8 8 7 6 5 4 4 3 3 3 3 3 3 3 3 3 3 2 2 1 1 1 1 1 1 2 3 3 3 4 4 4 4 4 4 4
15 14 8 5 5 5 6 6 7 9 9 9 9 9 9 8 7 6 6 5 4 3 3 3 3 3 3 4 3 3 3 2 2 2 2 1 1 1 1 2 2 3 3 3 3 3 3 3 4
12 11 6 2 3 5 5 6 6 8 8 9 9 9 9 9 7 7 6 5 5 4 3 3 4 4 4 4 4 4 4 3 3 3 2 2 1 1 0 1 1 2 2 2 2 3 3 3 3
9 8 3 2 2 4 5 6 7 8 8 8 9 10 9 9 8 8 7 6 6 5 4 4 4 4 4 4 4 4 4 4 3 3 3 3 2 2 1 1 1 1 1 1 2 2 2 3 3
6 6 2 0 0 2 4 6 6 8 8 9 10 10 10 9 8 8 8 7 7 6 5 5 5 5 4 5 5 4 4 4 4 3 3 3 3 3 2 1 1 1 1 1 1 2 2 2 2
3 5 3 1 1 2 2 3 4 6 8 9 10 10 10 9 9 9 9 8 8 7 6 6 6 5 5 5 5 5 5 5 4 4 4 4 4 3 3 2 2 3 2 2 2 2 2 2 1
3 2 1 0 1 1 2 3 5 6 8 9 9 10 10 10 9 9 9 9 9 8 7 7 7 6 6 6 6 6 5 5 5 4 4 4 4 4 4 4 4 4 3 3 3 3 2 2 2
5 2 1 2 3 2 2 3 5 7 8 9 9 10 11 10 10 10 10 10 10 9 8 7 7 7 7 7 6 6 6 5 5 5 5 5 5 5 5 4 4 4 4 3 3 3 3 3 3
4 2 2 3 4 3 3 2 4 8 9 10 10 11 11 11 10 10 11 11 10 10 9 8 8 7 7 7 7 7 7 7 6 6 6 6 6 6 6 6 6 6 5 5 4 4 4 4 4
2 1 3 5 6 6 5 4 4 8 9 10 11 10 11 11 10 10 11 12 11 11 10 9 8 7 8 8 8 8 7 7 7 7 7 8 8 8 8 8 8 8 7 6 6 6 5 5 5
2 3 5 6 8 7 6 6 6 7 8 10 11 10 11 11 10 10 11 11 11 11 11 10 10 9 9 9 9 9 8 7 7 7 7 8 8 9 9 9 9 9 8 8 8 7 7 6 7
6 6 8 8 9 8 7 7 7 8 8 10 11 11 11 11 11 11 11 11 11 11 12 11 10 10 10 10 10 9 9 8 9 8 8 7 8 9 10 10 10 10 9 9 8 8 8 8 8
10 10 10 12 12 9 9 9 8 9 9 10 11 12 12 11 11 11 11 11 11 12 12 12 11 11 11 11 12 11 10 10 10 10 9 9 9 9 10 9 9 9 10 10 10 9 9 9 9
13 12 12 12 13 9 8 9 8 9 11 12 12 12 13 12 12 12 11 12 12 12 13 13 14 13 12 13 13 12 11 11 11 11 11 9 10 9 9 9 8 8 10 10 10 11 11 11 11
14 12 12 12 14 10 8 9 11 12 11 12 13 13 13 12 12 12 11 12 12 12 13 13 15 14 13 13 13 12 11 12 12 11 11 10 10 10 9 9 9 9 10 11 12 12 12 12 12
15 14 14 14 13 10 8 10 13 15 14 13 12 13 13 13 13 12 11 12 12 13 13 14 15 15 15 15 13 12 12 13 13 12 12 11 11 11 10 9 9 10 11 12 12 13 13 14 13
17 16 15 14 13 11 10 10 12 16 15 13 12 13 13 13 13 13 12 12 13 13 14 15 15 16 16 15 14 13 13 13 14 13 12 11 11 11 10 10 11 11 11 12 13 14 15 15 15
18 16 15 14 13 14 12 12 13 15 15 14 14 14 13 14 14 13 13 13 14 14 14 15 15 16 16 16 15 14 14 14 15 14 14 12 12 11 11 11 12 12 13 13 14 14 15 16 16
19 17 15 13 13 12 11 13 16 16 16 15 15 16 15 15 14 14 14 13 14 15 15 15 16 16 17 17 17 15 14 15 15 15 14 13 13 12 11 11 12 12 13 13 14 15 15 16 16
21 19 17 14 12 12 12 13 14 16 17 17 16 16 17 15 14 15 15 14 14 15 16 16 16 16 17 17 17 17 15 15 15 15 14 14 13 13 12 12 12 13 13 14 15 16 15 16 17
22 21 18 16 13 14 14 14 15 17 17 18 17 17 16 16 15 15 15 14 15 15 16 16 16 17 16 17 17 17 16 15 15 15 15 14 14 13 12 12 12 12 13 14 15 15 15 16 17
24 21 21 21 19 17 15 16 16 19 17 18 16 15 16 16 15 15 16 15 15 15 16 17 17 17 16 16 17 18 17 17 16 16 15 15 15 15 13 13 13 12 12 13 13 14 15 16 17
25 24 24 23 21 17 16 15 15 19 20 19 18 17 16 16 16 15 17 16 13 15 17 17 17 17 17 17 17 17 18 18 17 16 16 16 16 15 14 14 13 12 12 12 13 14 15 15 16
25 25 25 25 24 22 18 17 16 18 19 19 18 17 17 17 16 16 16 16 16 16 16 16 17 17 17 17 17 18 18 18 18 17 17 16 15 15 14 14 14 14 13 13 14 14 15 15 16

GEFSSGP_500_meanwind_186.txt.gz
Wind_Speed
17 17 17 16 17 17 19 19 18 17 16 15 14 14 12 11 11 11 9 9 10 11 10 10 9 9 8 8 7 7 6 6 6 6 6 6 6 6 6 6 6 6 7 7 7 8 8 8 8
16 16 16 17 18 18 19 19 18 17 16 15 14 13 12 10 10 10 9 9 10 10 9 9 9 8 8 7 7 6 6 6 6 6 6 5 5 5 5 5 5 5 6 6 7 7 7 8 8
15 15 16 17 18 18 19 19 18 17 16 15 14 14 12 10 10 9 9 9 9 9 9 8 8 8 8 7 7 6 6 6 6 6 5 5 4 4 4 5 5 5 5 5 6 6 7 7 7
14 15 16 16 17 18 19 18 18 17 15 14 14 13 12 11 10 10 9 9 9 8 8 7 7 7 7 7 7 7 6 6 6 6 6 5 5 4 4 4 4 4 4 5 5 5 6 6 6
13 14 15 16 17 18 18 18 17 16 15 15 14 13 12 12 11 10 9 9 8 8 7 7 7 7 7 7 7 7 7 6 6 6 6 5 5 5 4 3 3 3 4 4 5 5 5 6 6
12 13 14 15 15 16 17 18 16 15 15 15 14 14 13 12 11 10 10 9 8 8 7 6 6 7 7 7 7 7 7 6 6 6 5 5 5 5 4 3 3 4 4 4 4 4 5 5 5
11 11 12 14 14 14 15 15 15 16 15 16 15 14 13 13 12 11 10 9 8 7 7 6 6 7 7 6 6 6 6 6 6 5 5 5 5 4 4 4 3 4 4 4 4 4 4 4 4
10 10 11 12 12 14 15 14 14 15 16 16 16 15 15 14 13 12 11 10 9 8 7 7 7 7 7 6 6 6 6 6 6 5 4 4 4 4 4 3 3 3 3 3 3 3 3 4 4
9 9 9 10 11 12 13 14 14 15 16 15 16 16 15 15 14 13 12 11 10 9 8 7 7 7 7 6 6 6 6 6 5 4 4 4 3 3 3 3 2 2 2 2 2 3 3 3 3
7 7 8 9 10 11 12 13 14 14 15 15 15 16 15 15 14 13 12 12 10 10 9 8 7 7 7 6 6 6 6 6 5 4 3 3 3 3 2 1 1 2 2 1 1 2 2 2 2
6 6 7 6 8 9 10 12 13 13 14 15 15 15 15 15 14 13 13 12 11 9 9 8 7 7 7 6 6 6 6 5 4 4 3 3 2 2 2 1 1 1 1 1 1 1 1 2 2
5 5 5 6 7 8 9 11 12 12 13 14 15 15 14 14 14 14 13 13 12 10 9 7 7 7 7 6 5 6 6 5 4 4 4 2 2 2 1 1 1 1 1 0 0 0 0 1 1
5 4 3 5 7 8 10 11 12 12 13 14 15 15 15 14 14 14 14 13 12 10 9 8 7 7 6 6 6 6 5 5 4 3 3 2 2 1 1 1 2 2 2 2 2 2 2 2 2
6 3 3 4 6 8 9 9 11 12 13 14 15 15 14 14 13 13 13 13 13 12 10 9 8 7 7 6 7 7 6 5 4 4 3 3 2 2 2 3 3 3 2 3 3 3 3 3 3
6 4 2 3 5 6 8 9 10 10 12 13 14 15 14 13 13 12 12 13 13 12 11 9 9 8 8 8 8 8 7 6 5 4 4 4 3 3 3 3 4 4 4 4 4 4 4 4 4
7 5 2 1 2 4 7 8 8 10 11 12 14 14 14 13 13 13 12 12 12 12 11 10 9 9 9 8 8 8 8 7 6 6 6 5 4 4 4 4 4 4 5 5 5 5 5 5 6
9 5 4 3 3 6 7 8 7 8 10 11 13 14 13 13 12 12 12 12 11 12 11 10 10 10 9 9 9 9 8 8 7 7 7 6 5 5 5 5 5 5 5 5 6 6 6 7 7
10 7 5 4 3 7 9 8 7 8 9 10 12 13 13 12 12 12 12 13 12 12 11 11 10 10 9 9 9 9 8 8 8 7 8 7 7 6 6 6 6 6 6 6 7 8 8 8 8
12 9 7 5 5 9 10 9 8 8 8 10 11 12 12 12 12 11 11 12 11 11 10 10 10 10 9 9 9 9 9 9 8 7 8 8 7 6 6 6 6 6 6 7 7 8 9 9 9
14 12 10 7 7 9 10 10 8 7 7 9 11 11 11 11 11 10 10 11 11 10 10 10 10 10 10 10 10 10 9 9 9 8 8 8 7 7 6 6 6 6 7 8 8 8 9 9 10
16 14 13 11 10 11 11 10 8 8 8 9 10 11 12 9 10 11 10 10 10 10 11 10 10 10 10 10 10 10 9 9 9 9 9 8 8 7 7 6 7 7 8 9 9 9 9 10 11
17 15 14 13 12 11 10 10 9 9 9 10 10 11 10 10 11 10 8 9 11 11 12 11 10 10 10 10 10 10 10 9 9 9 9 9 9 8 8 7 7 7 8 9 11 10 11 11 12
18 17 16 14 13 12 12 11 10 11 10 11 11 12 11 11 11 10 8 9 10 12 12 12 10 10 11 10 10 10 10 9 9 9 9 9 9 9 8 8 8 9 9 10 11 11 12 12 13
19 19 19 17 14 13 12 13 11 11 11 11 12 12 11 11 11 11 10 10 10 11 12 11 10 11 11 11 10 10 10 10 10 10 10 9 9 9 10 10 10 9 10 10 10 12 12 13 14
22 20 20 18 16 13 12 13 11 11 12 12 12 12 11 11 11 11 10 11 10 11 12 11 11 11 11 11 9 9 10 9 9 9 10 10 10 11 10 10 9 9 9 10 11 12 13 13 14
23 22 21 19 17 14 12 10 9 10 11 11 12 13 12 11 11 11 10 11 11 12 12 12 10 11 11 11 9 9 10 10 9 10 10 10 11 11 10 10 9 9 10 11 12 13 13 13 14
23 23 21 21 20 16 13 10 10 11 11 13 13 13 13 13 12 12 11 10 11 11 11 12 10 10 11 11 11 11 11 11 10 10 10 11 11 11 10 10 10 10 10 11 12 13 13 14 14
23 22 23 24 22 19 15 13 12 11 12 13 13 13 14 13 13 13 12 11 11 11 12 13 10 10 11 12 12 12 12 12 11 11 11 11 11 11 11 11 11 11 11 11 12 13 13 13 14
24 24 24 24 24 22 19 15 13 12 12 12 12 14 15 14 13 12 12 12 12 12 13 13 12 12 12 12 12 12 13 13 12 12 11 11 11 12 11 11 10 10 10 10 11 12 13 14 14
25 24 23 24 24 23 22 19 15 13 14 14 14 14 15 14 14 14 13 13 13 13 13 12 12 13 12 12 12 12 12 12 12 12 12 12 12 12 11 11 10 11 11 11 11 11 11 12 12

GEFSSGP_500_meanwind_192.txt.gz
Wind_Speed
17 17 17 17 18 17 18 19 20 18 17 17 16 16 14 13 12 12 12 11 9 9 10 10 11 11 11 11 11 11 11 11 11 11 11 10 10 9 9 8 8 8 8 8 8 8 8 8 8
17 16 16 17 18 17 19 20 20 18 17 17 17 16 15 13 12 12 11 10 8 8 9 9 10 11 11 11 11 11 11 11 11 11 10 9 9 9 8 8 8 8 8 8 8 8 8 8 8
15 15 15 16 17 18 19 20 20 19 17 17 17 16 15 13 12 11 10 9 7 7 8 9 10 10 10 10 11 11 11 10 10 10 10 9 8 8 8 8 8 7 7 7 7 8 7 7 7
14 14 15 16 17 18 19 20 21 20 18 17 17 17 15 13 11 10 10 8 7 7 8 9 9 10 10 10 10 10 10 10 10 10 9 9 8 8 8 7 7 7 6 7 7 7 7 7 7
13 13 14 15 17 18 19 19 20 20 18 17 17 17 15 13 11 10 9 8 7 7 8 9 9 9 9 9 9 9 9 9 9 9 9 9 8 8 7 7 7 6 6 7 6 6 6 7 6
13 14 15 16 16 17 18 19 20 20 18 18 17 17 15 13 11 10 9 9 8 8 8 8 8 8 8 8 8 8 8 8 8 8 8 8 8 7 7 7 6 6 6 6 6 6 6 6 6
11 13 15 15 16 16 18 18 19 19 18 18 17 16 15 13 12 11 10 10 9 8 8 8 8 8 8 8 8 7 7 7 7 7 7 7 7 7 7 6 6 6 6 6 5 5 5 5 6
11 12 14 16 17 17 18 18 18 18 18 17 17 16 16 14 13 11 11 10 9 9 8 8 7 7 8 8 8 7 7 7 7 6 6 6 6 6 6 6 6 5 5 5 4 5 4 4 5
10 12 13 14 16 17 18 18 17 17 17 17 17 17 16 14 14 12 11 10 10 9 9 8 7 7 7 7 7 7 7 7 6 5 5 6 6 6 5 5 5 5 4 4 4 4 3 4 4
9 11 12 13 16 17 17 17 17 17 17 17 17 16 16 15 14 13 12 11 10 10 9 8 7 6 7 7 7 7 7 7 6 5 5 5 5 5 4 4 4 3 3 3 3 3 3 3 3
7 9 10 12 14 15 16 17 16 16 16 16 16 16 15 14 14 13 13 12 11 10 9 8 7 7 6 6 7 7 7 6 6 5 4 4 3 3 3 2 2 2 2 2 2 2 2 2 2
6 8 9 11 13 14 15 16 16 16 15 15 15 15 15 14 14 14 13 12 11 10 9 9 8 7 7 6 7 7 7 6 5 5 4 3 2 2 2 2 1 1 1 1 1 1 1 2 2
4 7 8 9 11 13 14 15 15 15 15 15 15 15 14 14 14 14 13 12 11 10 9 9 9 8 7 7 7 7 7 6 5 4 4 3 2 2 2 1 1 1 0 1 1 1 2 2 1
3 4 6 7 9 11 13 13 13 14 14 14 14 15 14 14 14 14 14 12 12 11 10 9 9 8 7 7 7 7 7 7 5 5 4 3 3 3 2 1 1 1 1 2 2 2 2 2 2
4 3 4 5 7 9 10 11 12 13 13 13 13 14 14 13 14 14 14 14 13 11 10 9 9 8 7 6 6 6 6 6 5 5 5 4 3 3 3 3 3 2 2 3 4 4 4 4 3
6 4 3 3 4 7 8 10 11 11 12 11 12 13 13 12 13 13 14 14 13 12 11 10 10 9 7 7 7 7 6 6 6 5 5 5 4 4 3 3 3 3 4 3 4 5 5 5 5
8 6 4 0 2 5 6 8 8 10 11 11 11 12 12 11 11 12 13 14 13 12 11 10 9 9 8 8 8 7 6 6 6 6 5 5 5 4 4 4 4 4 5 4 4 4 5 6 7
10 8 6 4 1 2 3 5 7 9 9 10 10 11 11 11 11 11 12 13 12 11 10 9 9 8 8 8 8 8 7 6 6 6 6 6 5 5 5 5 6 6 6 5 6 6 6 7 8
14 11 9 7 5 3 2 3 5 6 7 8 8 9 9 10 10 10 11 11 10 9 9 9 9 8 8 8 8 8 7 6 6 7 6 6 6 6 5 6 6 7 7 7 7 8 8 8 8
16 14 12 11 8 7 4 3 4 5 5 5 7 8 9 9 10 10 10 10 10 9 8 8 9 8 8 8 8 7 7 7 7 7 7 6 6 7 6 7 7 8 8 8 8 9 10 9 9
19 17 15 13 11 9 8 5 4 4 4 5 6 8 8 9 10 10 9 9 9 9 8 8 9 9 9 9 8 8 7 8 8 8 7 7 7 8 8 9 8 8 9 9 10 10 10 11 11
20 18 17 15 13 12 10 7 4 4 4 4 6 8 8 8 9 10 9 9 9 8 9 9 10 10 10 10 9 8 8 9 8 8 8 8 8 8 9 9 9 9 10 11 11 12 12 12 13
22 20 18 17 16 14 12 10 6 5 4 4 6 7 8 9 8 9 9 9 9 9 10 10 11 11 11 10 8 8 9 8 8 8 8 8 9 9 9 9 9 10 11 11 12 12 12 12 12
23 22 21 19 17 16 13 12 7 6 5 4 6 6 7 8 9 9 8 8 8 9 10 11 11 11 11 9 8 9 9 9 9 9 9 9 10 10 10 10 9 10 10 11 10 11 11 12 13
25 24 23 22 19 17 15 13 9 7 7 6 6 6 7 8 9 8 8 9 8 9 10 11 11 11 10 9 8 8 9 9 9 9 9 10 10 10 11 11 11 11 10 10 10 11 12 12 13
27 26 25 24 21 19 17 14 10 8 8 7 6 7 8 8 8 8 9 10 9 10 10 10 10 11 10 10 10 9 9 9 10 10 10 11 11 11 12 12 11 11 11 11 11 11 12 13 13
28 27 26 25 23 22 20 15 12 11 10 8 7 7 7 8 8 8 9 10 11 12 10 10 10 10 10 10 10 10 10 10 10 10 10 11 11 12 12 12 12 11 11 12 11 12 12 13 14
29 28 27 26 25 23 21 17 13 12 11 10 8 7 8 8 8 8 9 11 12 12 11 9 10 10 10 10 10 10 10 11 11 11 11 11 12 12 12 12 13 12 12 12 12 12 12 13 14
30 29 28 27 25 23 21 18 15 14 13 11 10 8 8 8 9 9 10 11 11 11 10 9 9 9 10 10 10 10 11 11 11 11 11 12 12 12 13 14 14 14 13 12 12 12 12 12 13
30 29 29 28 26 24 22 18 16 15 14 12 11 10 9 10 10 10 10 11 12 12 9 9 9 9 10 10 10 10 11 11 11 11 12 12 13 13 13 14 13 13 13 12 11 12 12 12 13

GEFSSGP_500_meanwind_198.txt.gz
Wind_Speed
18 17 16 17 18 16 16 17 17 16 16 15 14 14 13 12 12 11 11 10 9 9 8 8 8 8 9 9 10 10 10 11 11 11 11 12 12 12 13 13 12 12 11 11 11 10 10 10 9
16 16 16 18 17 14 15 17 17 16 16 15 15 14 13 13 12 11 10 9 8 8 8 8 8 8 8 9 9 10 10 10 10 10 11 11 11 12 12 12 11 11 11 10 10 10 9 9 9
16 16 16 17 15 15 16 16 16 17 16 15 15 14 13 12 12 10 9 9 8 7 7 7 7 8 8 8 9 9 9 9 10 10 10 11 11 11 11 10 10 10 10 10 9 9 9 9 8
16 16 17 15 15 16 16 16 17 16 16 15 14 14 13 12 11 10 9 9 8 7 6 7 7 7 7 8 8 8 8 9 9 9 10 10 10 10 10 9 9 9 9 9 9 9 8 9 8
15 16 15 14 15 16 16 16 16 16 16 15 14 14 13 12 11 10 9 8 7 6 6 6 6 6 6 7 7 7 8 8 8 9 9 9 8 8 9 8 9 9 8 8 8 8 8 8 8
15 15 13 13 14 15 15 15 16 16 16 15 15 14 13 12 11 10 9 8 7 6 6 5 6 6 6 7 7 7 7 7 8 8 8 8 8 8 8 8 8 8 8 8 8 8 7 7 7
16 14 13 13 14 14 15 15 16 16 16 16 15 14 13 13 11 10 9 8 7 6 6 5 5 6 6 6 6 6 6 6 7 7 7 8 7 7 7 7 7 7 7 7 7 7 7 7 7
14 14 12 13 13 14 14 15 16 16 16 16 15 15 14 13 12 10 9 8 7 6 6 5 5 5 6 6 6 6 6 6 6 6 7 7 6 6 7 7 7 6 6 6 6 6 7 6 6
14 13 11 12 13 13 14 14 15 15 16 16 16 15 14 13 12 10 9 8 8 7 6 6 5 5 5 6 6 6 6 6 6 6 5 5 5 5 5 5 5 5 5 6 6 6 6 6 5
12 10 10 11 12 13 13 14 14 15 15 15 15 14 14 13 12 10 9 9 8 7 6 6 6 5 5 5 6 5 5 5 5 4 4 4 4 4 3 3 4 4 4 5 5 5 5 5 5
10 10 10 11 12 12 13 14 14 14 15 14 14 14 14 13 12 11 10 9 9 8 7 6 6 6 5 5 5 5 5 5 4 4 3 3 3 3 3 3 3 3 4 4 4 4 4 4 4
9 9 9 10 10 11 12 12 14 14 14 13 13 13 13 13 13 12 10 10 10 9 8 6 6 6 6 6 6 6 5 5 4 3 3 2 2 2 2 2 3 3 3 3 4 4 4 4 4
8 8 8 8 9 10 11 12 12 13 13 13 12 13 13 14 13 13 12 10 10 9 8 7 7 7 6 6 6 6 5 4 3 2 2 3 2 2 1 1 2 2 3 4 4 4 4 4 4
7 7 6 8 8 9 10 11 12 12 12 13 12 13 13 13 12 12 12 11 10 9 10 9 7 7 6 6 6 5 5 4 3 2 2 1 1 1 1 0 0 1 2 3 4 4 4 4 4
6 6 5 6 7 8 9 10 11 11 12 12 12 12 12 12 12 12 12 11 11 10 10 9 9 8 7 6 6 6 6 4 4 3 2 1 1 1 1 1 1 1 2 2 3 4 4 4 4
6 5 3 4 5 5 7 8 9 9 10 11 12 11 11 11 11 11 11 11 11 10 10 9 9 8 8 7 6 6 6 5 4 4 3 2 1 0 1 1 2 2 3 3 4 4 4 5 5
6 5 4 2 3 3 5 5 7 8 9 10 11 11 11 11 11 11 11 11 11 11 11 10 9 8 8 7 7 7 7 6 5 5 5 4 3 2 2 2 3 3 4 4 5 5 6 6 6
9 7 5 3 2 2 3 3 5 7 8 9 10 10 10 10 10 10 10 11 11 10 11 10 9 10 9 8 8 7 7 7 6 6 5 5 5 4 3 3 3 4 5 5 5 6 7 8 8
11 9 7 5 3 1 0 2 4 5 6 8 9 9 10 10 10 10 10 10 10 11 11 10 10 10 10 8 8 8 7 7 7 6 6 6 6 5 5 4 4 5 6 6 7 8 8 9 10
12 10 8 7 4 3 2 2 3 5 6 7 8 9 9 9 10 9 9 9 10 11 11 10 11 10 10 9 8 8 9 8 8 8 7 6 6 7 6 6 6 7 7 7 8 8 9 9 11
15 12 11 9 6 5 4 4 5 5 6 7 7 7 8 9 9 9 9 9 10 10 10 10 10 10 10 9 9 9 9 9 9 8 7 6 7 7 8 8 7 7 7 8 8 9 9 9 10
17 14 13 11 8 7 5 4 8 6 6 6 6 7 8 8 9 9 9 9 9 9 9 10 11 11 11 9 9 9 9 10 9 8 7 7 7 7 8 9 9 8 8 8 8 9 10 10 11
19 16 14 13 10 9 8 5 7 7 6 6 6 7 8 8 8 9 9 9 8 8 9 10 11 11 11 10 9 9 9 9 9 8 8 7 7 8 8 9 10 10 10 9 9 9 10 11 11
20 18 16 14 12 11 10 7 7 8 7 7 7 7 8 9 9 8 9 8 8 9 10 10 11 12 12 11 10 9 9 9 9 9 9 8 8 8 9 10 10 11 11 10 9 9 10 11 12
22 20 17 15 14 13 11 9 8 8 7 7 7 7 8 9 9 8 8 8 8 9 10 11 12 12 11 11 10 10 9 9 10 10 9 9 8 9 10 10 11 11 11 11 10 10 10 11 11
23 22 19 16 14 14 14 11 9 9 8 8 8 8 9 9 9 8 8 8 8 10 11 12 11 11 11 11 10 10 9 9 9 10 9 9 10 10 10 11 11 12 11 12 12 11 10 11 11
25 24 21 18 16 15 15 12 10 10 10 9 9 9 8 8 8 8 8 8 9 10 11 11 11 11 11 10 9 9 8 9 9 9 9 10 11 12 12 12 12 12 12 12 12 12 11 11 12
27 25 23 20 18 16 15 13 11 11 11 11 10 9 9 9 8 8 8 9 9 10 11 11 11 10 10 9 9 9 9 9 9 9 10 11 12 12 12 13 13 12 12 12 12 12 12 12 12
28 27 25 23 20 17 14 14 14 13 13 13 12 11 10 9 9 9 9 9 10 10 10 10 10 10 10 9 9 10 10 10 10 10 11 11 12 13 13 13 13 13 13 13 13 12 12 12 12
29 28 27 25 23 20 16 15 15 14 14 14 13 12 11 10 10 10 10 9 9 10 10 10 10 10 10 10 10 10 10 11 11 11 12 12 13 13 14 14 14 13 14 13 14 13 13 13 13

GEFSSGP_500_meanwind_204.txt.gz
Wind_Speed
20 20 20 20 19 14 12 12 11 11 10 10 9 9 9 9 9 9 9 9 9 8 8 8 8 7 7 7 6 6 6 6 6 8 9 9 9 9 9 9 9 10 10 10 10 10 10 10 10
19 18 19 20 15 12 12 12 11 11 10 10 10 10 9 9 9 9 9 9 9 8 8 8 8 7 7 7 7 6 6 6 6 7 8 9 10 10 10 10 9 10 9 10 9 9 10 10 10
19 18 21 17 12 11 11 11 11 11 10 10 10 9 9 9 9 9 8 9 9 8 8 7 7 7 7 6 6 6 6 6 6 7 8 8 9 9 9 9 9 9 9 9 10 9 10 9 9
19 22 18 12 11 11 11 11 11 11 11 10 10 10 10 10 10 9 9 9 9 8 8 8 7 7 7 7 6 6 6 7 6 6 6 7 8 8 8 8 8 8 8 9 9 9 9 8 8
22 20 13 10 10 11 11 11 12 12 11 11 11 11 10 10 10 10 10 10 9 8 8 8 7 7 7 7 6 6 6 6 6 6 6 6 7 7 7 7 8 7 8 8 8 8 8 8 7
21 14 10 8 9 10 11 11 12 12 12 13 12 12 11 11 11 10 10 10 9 9 8 7 7 7 6 6 6 5 5 6 6 6 6 6 6 7 7 6 7 7 7 7 7 7 7 7 7
18 12 8 7 8 9 9 10 12 13 13 14 14 14 12 12 11 11 11 10 9 9 8 7 7 6 6 6 5 5 5 5 5 6 6 6 6 6 6 6 6 5 5 5 6 6 6 6 6
14 11 7 6 7 8 9 9 12 14 14 15 16 15 14 13 12 12 12 11 10 10 9 7 7 7 6 6 5 4 4 4 4 4 5 5 5 5 5 5 5 5 4 4 5 5 6 6 6
12 10 7 5 7 7 8 9 11 13 14 15 15 15 14 14 13 12 12 12 11 11 9 8 7 7 7 6 6 5 4 3 4 3 4 4 4 3 4 4 4 4 4 4 4 4 5 5 5
8 7 6 5 5 7 9 10 11 11 13 15 15 15 15 14 15 14 13 13 12 11 10 9 8 8 7 7 6 5 4 4 3 3 3 3 3 3 3 3 3 3 3 3 3 3 4 4 4
6 6 5 5 5 8 9 11 12 12 13 14 15 15 15 15 15 15 14 13 13 12 11 11 10 9 8 7 7 6 5 5 4 4 3 3 3 3 3 3 2 2 2 2 3 3 2 3 3
5 4 5 5 6 7 8 9 10 11 12 13 14 15 16 15 16 15 15 14 13 13 12 11 11 10 9 8 8 7 7 6 6 4 3 3 3 3 3 3 1 1 1 2 3 3 2 2 2
4 3 4 5 6 6 7 9 10 11 12 12 13 15 16 16 16 16 15 15 14 14 13 12 12 11 10 9 9 8 8 7 6 5 4 3 3 3 2 3 2 1 1 2 3 3 3 3 3
2 3 4 5 6 6 7 9 10 11 12 12 13 15 16 16 16 15 15 15 14 14 14 13 11 12 11 11 10 9 8 8 7 5 5 4 3 2 2 2 2 1 0 1 2 3 3 3 3
4 3 1 3 5 5 7 7 10 12 12 13 13 15 15 15 16 15 14 14 14 14 14 14 12 11 12 12 11 10 8 8 7 6 5 4 3 3 2 2 2 1 1 1 2 3 4 4 4
4 4 2 2 3 5 5 6 9 10 12 13 14 14 15 15 15 14 14 14 14 14 14 14 13 13 12 12 11 10 9 8 7 6 5 4 4 3 3 3 3 2 2 3 3 3 4 5 5
5 5 4 2 2 3 4 5 9 10 11 13 13 14 14 14 14 14 13 14 13 13 14 14 14 13 12 12 11 11 10 10 8 7 5 5 5 4 4 3 4 3 3 3 4 4 5 6 6
7 6 6 4 3 3 4 5 8 10 11 13 13 14 14 14 14 14 13 13 13 13 14 14 14 13 12 13 13 12 11 10 8 7 6 5 6 6 5 5 5 4 4 5 5 6 6 6 6
9 7 6 6 7 5 6 5 6 10 12 13 13 14 14 14 13 13 13 13 13 14 14 14 14 13 13 13 13 13 12 10 9 7 6 6 6 6 6 6 6 6 6 6 6 6 7 7 7
11 9 8 8 8 5 7 7 7 7 10 13 13 13 13 13 13 13 12 13 13 13 13 14 14 14 13 13 13 13 13 11 10 8 7 7 7 6 7 7 8 7 7 6 6 6 7 8 8
12 11 11 10 8 6 7 9 11 8 8 11 13 13 12 12 12 12 12 12 12 13 13 13 14 13 14 14 14 14 12 11 10 9 8 8 7 7 8 8 8 7 7 6 6 6 7 8 9
13 14 14 12 8 7 8 12 14 10 7 10 12 12 12 11 12 12 12 12 12 12 12 13 13 13 13 14 14 13 12 12 11 10 9 9 8 8 8 9 8 8 7 7 7 7 7 8 9
15 16 15 12 9 9 8 12 15 12 8 10 11 12 12 11 11 12 12 12 12 12 12 13 13 13 13 14 13 12 12 12 11 10 10 9 9 9 8 9 10 9 8 8 8 8 8 8 9
18 16 13 10 10 11 9 11 14 12 9 11 12 12 11 11 12 11 11 11 12 12 12 13 13 13 13 13 13 12 12 11 11 10 10 10 10 10 9 9 9 9 9 9 9 9 9 9 9
20 16 13 12 12 13 12 11 14 12 13 13 13 11 11 10 11 11 11 10 11 12 13 13 13 13 13 12 13 12 11 10 11 11 10 10 10 10 10 10 10 10 10 10 10 10 10 9 10
21 20 17 14 12 12 11 11 14 13 14 13 12 11 11 11 10 10 10 10 11 11 12 13 13 13 13 13 12 12 11 11 11 11 10 10 10 11 11 11 11 11 11 12 12 11 11 11 11
21 21 18 16 14 13 11 13 14 14 13 13 12 10 11 10 10 10 10 10 11 11 12 13 13 12 12 12 13 13 12 11 12 12 11 11 11 11 12 12 12 12 13 13 13 12 12 12 12
24 21 20 20 18 15 12 13 15 15 14 14 12 11 11 10 10 11 10 10 11 11 12 13 12 12 12 12 12 13 12 12 12 11 11 11 12 12 13 13 13 13 13 14 14 14 14 13 13
25 25 24 22 20 17 14 15 17 16 15 15 14 12 11 10 9 11 11 11 11 12 12 12 12 12 12 11 12 12 12 13 12 12 12 12 13 13 14 14 14 15 14 14 15 15 14 13 13
25 25 25 25 23 20 18 17 16 16 15 16 15 14 11 11 11 12 12 11 11 11 11 12 12 12 12 12 13 13 12 13 13 12 13 13 14 14 14 15 15 15 15 15 15 15 14 14 14

GEFSSGP_500_meanwind_210.txt.gz
Wind_Speed
19 19 19 19 19 18 19 20 19 17 15 16 15 15 15 14 12 11 11 10 11 12 12 12 12 11 11 10 10 9 8 8 7 7 8 8 7 8 9 9 9 9 9 10 11 11 11 11 11
18 19 19 20 19 18 20 21 19 17 16 15 15 14 14 13 12 11 11 11 11 11 11 11 11 11 10 10 10 10 9 8 8 8 8 8 8 7 7 8 8 8 9 9 9 10 10 10 10
16 18 19 21 20 20 22 21 19 18 17 16 15 15 13 12 12 11 11 11 11 11 11 11 11 10 10 10 10 10 10 9 8 7 7 8 7 7 8 8 9 9 9 8 8 8 8 9 10
15 17 19 20 20 20 22 22 20 19 18 17 16 15 14 13 13 12 12 12 12 12 11 11 11 11 10 10 10 10 10 9 8 8 7 7 7 7 8 9 9 9 8 8 8 8 9 9 9
14 17 19 19 19 20 21 22 21 20 19 18 17 16 15 15 14 13 12 12 12 12 11 11 11 11 10 10 10 10 10 10 9 8 7 7 7 7 8 7 8 8 8 8 8 9 9 9 9
14 17 18 18 18 19 20 21 20 19 19 19 18 17 15 15 14 14 13 13 12 11 11 11 11 10 10 9 9 9 9 9 8 8 7 7 7 8 7 7 7 7 7 7 7 8 8 9 9
13 14 15 17 17 18 19 19 19 19 19 19 18 17 16 16 15 14 14 13 12 12 12 11 11 10 9 9 9 8 8 8 7 7 7 6 6 6 6 6 6 6 6 6 7 7 8 8 8
13 13 14 15 16 17 17 17 17 18 19 19 19 18 17 17 15 14 14 14 13 12 12 11 10 10 9 9 9 8 8 7 7 7 6 6 6 5 5 5 5 5 5 6 6 6 6 7 7
11 11 12 14 14 15 15 16 17 18 19 20 20 19 19 18 17 15 15 14 14 13 12 11 11 10 9 9 8 8 7 7 6 6 6 5 5 5 5 4 4 4 4 5 5 5 6 6 6
10 10 11 12 13 13 14 15 17 18 19 19 20 19 18 18 18 17 16 15 15 15 14 13 12 11 10 10 9 8 8 7 6 6 5 4 4 4 4 3 3 3 4 4 4 4 4 4 4
8 8 9 10 12 14 15 16 17 18 19 19 19 18 17 18 18 17 17 16 15 15 15 14 13 12 11 10 10 9 8 7 6 6 4 4 3 3 2 3 3 3 3 3 4 4 3 4 4
6 6 8 10 13 15 16 16 17 18 18 18 19 18 17 17 17 18 17 16 15 15 14 14 14 13 12 11 9 8 8 7 7 6 4 4 3 3 2 2 2 2 3 3 3 3 3 3 3
4 5 7 9 12 14 15 17 16 16 17 17 18 18 18 17 17 17 17 16 16 15 14 14 14 14 13 12 11 10 8 7 7 6 5 4 4 3 2 2 2 2 2 2 2 2 3 3 3
3 3 5 7 9 11 13 15 15 16 16 16 17 18 18 17 16 16 16 16 15 15 15 14 14 13 13 12 11 10 9 8 7 6 5 4 3 3 2 2 1 1 1 1 1 2 2 3 3
4 1 3 4 7 9 11 12 13 14 15 15 16 17 17 17 16 16 16 15 15 14 14 15 14 13 13 12 11 11 10 8 7 6 5 4 3 2 1 0 0 1 1 2 2 2 3 3 4
4 2 1 2 5 7 8 10 12 12 13 14 15 16 16 16 15 15 16 15 15 14 14 14 14 13 12 12 11 11 10 9 7 5 5 4 4 3 2 1 1 1 1 1 2 2 3 4 5
6 4 2 1 3 4 6 9 10 11 12 13 14 14 15 15 15 15 15 14 14 14 14 14 14 13 13 12 12 11 10 9 7 6 5 4 3 3 3 2 1 0 1 2 2 3 4 5 6
6 6 4 4 4 5 5 7 9 9 11 12 12 13 13 13 13 13 13 13 13 13 13 13 13 13 13 13 13 12 10 9 8 7 6 5 3 3 3 2 1 1 2 3 3 4 4 4 5
8 7 5 4 5 6 5 6 8 8 9 10 12 12 12 12 12 12 12 12 12 12 12 12 12 13 13 13 13 12 11 10 9 8 7 6 4 3 3 3 2 2 2 3 3 4 3 4 5
11 8 6 5 6 6 6 6 6 8 9 9 10 10 11 12 11 11 11 11 11 12 12 13 13 13 13 12 12 12 11 10 9 8 7 6 4 4 4 3 3 3 3 2 3 4 5 5 5
14 11 8 8 8 8 7 7 8 8 8 7 8 9 10 11 10 10 11 10 10 11 12 12 12 12 12 12 12 12 12 10 9 8 7 7 5 5 4 4 4 3 3 3 3 4 5 6 6
16 13 11 11 10 10 10 8 6 6 6 6 7 8 9 10 9 9 10 10 10 11 12 12 12 12 12 12 11 12 12 11 10 9 8 7 6 5 5 5 5 4 4 4 4 4 5 6 7
18 17 16 15 14 13 12 11 8 6 5 4 6 6 7 8 8 8 9 9 9 10 10 11 11 11 11 11 11 11 11 10 10 9 9 7 7 6 6 5 5 4 5 5 5 6 6 7 7
20 20 19 18 16 14 12 12 9 7 6 4 5 5 6 7 7 8 8 8 9 9 10 10 11 11 10 10 10 10 10 10 10 10 9 8 7 7 7 7 6 6 6 6 7 7 8 8 9
23 21 19 18 16 13 12 12 10 8 6 5 4 4 5 6 6 6 7 8 9 9 9 10 10 10 10 9 9 9 9 10 10 10 9 8 7 7 7 7 7 7 7 7 8 8 9 9 9
23 21 20 18 15 13 13 13 10 8 7 5 5 5 5 5 5 5 6 7 8 9 9 9 9 9 9 9 9 9 9 9 9 9 9 9 8 8 8 8 8 9 9 9 9 9 10 10 10
24 23 20 18 17 15 14 13 10 8 7 6 6 5 5 4 5 5 5 6 8 8 9 9 9 9 10 10 9 9 9 9 9 9 9 9 9 9 9 10 10 10 10 10 11 10 11 11 11
26 24 23 22 20 18 16 14 12 9 7 7 7 8 7 5 5 4 5 6 7 8 8 9 8 8 10 10 9 9 10 10 9 9 9 9 9 10 10 11 11 11 12 12 12 12 11 11 11
28 28 27 25 23 20 19 16 12 10 11 10 8 8 7 5 5 5 5 6 6 7 8 8 9 9 9 9 9 9 10 10 10 10 10 11 11 11 11 12 12 13 13 14 13 13 12 13 13
28 28 28 28 25 23 22 19 14 13 13 11 10 9 8 7 6 6 6 7 7 7 7 8 9 9 9 9 9 10 10 10 11 11 12 12 12 12 13 13 14 14 14 14 13 14 13 13 13

GEFSSGP_500_meanwind_216.txt.gz
Wind_Speed
20 20 19 19 19 18 18 19 20 20 19 18 18 17 16 15 13 12 11 11 10 9 10 10 11 12 12 12 12 12 11 11 11 10 11 10 10 9 10 10 10 10 9 9 9 10 10 10 11
18 18 18 18 18 18 20 21 22 21 20 19 18 17 16 15 13 12 11 11 10 10 10 11 11 12 12 12 12 12 12 11 10 10 10 10 9 10 9 9 10 10 10 10 10 10 10 10 10
17 18 18 18 17 19 20 21 21 21 20 19 18 17 16 14 13 12 11 10 10 10 11 11 11 12 12 12 12 11 11 10 10 10 9 9 9 9 9 10 9 9 9 9 9 10 10 10 9
17 17 17 17 18 19 20 21 21 21 21 19 18 17 16 14 13 12 11 11 10 10 11 11 11 11 12 12 12 11 11 10 10 9 9 8 8 9 8 9 9 9 8 8 9 8 9 9 9
16 16 17 17 18 19 20 21 21 22 21 20 18 17 15 14 13 12 11 11 10 10 11 11 10 11 11 11 11 11 11 10 9 9 8 9 9 8 9 9 9 9 8 8 8 8 8 8 9
16 16 16 18 19 19 20 21 22 22 21 20 19 17 16 15 14 13 11 11 10 11 10 10 10 10 10 10 10 10 10 10 9 9 8 7 7 8 8 8 8 8 8 7 7 8 8 8 8
16 16 17 17 18 19 21 22 23 22 21 20 19 18 16 15 14 13 12 12 12 11 11 10 10 9 9 9 9 9 9 9 9 9 8 8 7 7 7 7 7 7 7 7 7 7 8 8 7
15 16 17 18 18 19 20 22 22 21 20 20 19 18 17 16 15 14 14 13 13 12 12 10 9 9 9 9 9 9 9 9 8 8 8 8 7 7 7 6 6 7 7 7 7 7 7 6 6
15 16 17 18 19 19 20 21 21 20 19 19 19 18 18 16 16 15 14 14 14 13 13 12 10 9 9 8 8 8 8 8 8 8 8 8 7 7 7 7 7 7 7 6 6 6 6 6 5
13 14 16 17 18 19 19 20 21 20 19 19 19 18 18 17 16 16 15 14 14 14 13 13 12 11 10 9 9 8 8 7 7 7 7 7 6 6 6 6 6 6 5 5 5 5 5 4 4
12 13 13 15 17 18 18 19 19 20 19 19 19 19 17 16 16 16 16 15 14 14 14 14 13 13 12 10 10 9 9 8 7 6 6 6 5 5 5 5 5 4 4 4 4 4 4 3 3
10 11 12 14 15 16 17 18 19 18 18 18 18 18 17 16 15 15 16 15 15 14 15 14 13 13 12 12 10 10 9 8 7 6 6 5 5 4 4 4 4 3 3 3 3 3 3 2 2
8 10 10 12 14 15 16 17 18 17 17 17 17 17 16 16 15 15 15 15 14 14 13 13 13 13 12 11 10 9 9 8 8 7 6 4 4 4 4 3 3 3 3 3 2 2 2 2 2
6 7 9 10 13 14 15 16 16 16 16 16 16 16 16 15 15 15 14 14 15 14 13 12 13 13 12 11 10 10 8 7 6 6 5 5 4 3 3 2 3 3 2 2 2 2 2 2 3
4 6 7 9 11 12 13 14 15 15 15 15 14 14 15 15 15 14 14 14 14 14 13 13 12 11 11 10 10 10 8 7 6 5 5 4 4 3 3 2 2 2 1 1 1 1 1 2 3
3 3 4 5 7 9 10 12 13 13 13 13 13 13 14 14 13 14 13 13 13 13 13 13 13 12 11 10 10 9 8 6 5 5 4 4 3 3 2 2 1 1 1 1 1 2 2 3 4
5 2 1 2 4 6 7 9 11 11 11 11 12 13 13 13 12 13 12 12 12 12 13 13 13 12 12 11 10 9 8 7 6 5 4 4 4 3 2 2 1 0 1 2 3 3 3 4 4
7 4 3 0 2 3 5 7 8 9 10 10 11 11 12 12 12 12 12 11 11 12 12 12 12 12 12 12 11 10 9 8 7 6 5 5 4 3 1 0 1 1 1 2 3 4 4 4 5
10 7 5 3 1 1 3 4 6 7 8 9 9 10 10 11 11 11 11 11 11 11 11 11 11 12 12 12 11 11 10 9 9 8 7 6 5 4 3 2 1 2 2 2 3 3 4 5 6
12 10 8 6 4 2 0 2 4 6 6 7 7 8 8 9 10 10 10 10 10 11 11 11 11 11 12 11 11 10 10 10 10 9 8 7 6 5 4 3 3 3 3 3 3 4 4 5 5
16 13 11 9 8 6 4 2 3 5 5 5 5 6 7 8 9 9 10 10 9 10 10 10 11 11 11 11 11 10 10 9 9 9 9 9 8 6 5 4 3 3 3 4 4 4 5 5 6
19 16 14 13 11 9 7 5 3 4 4 4 5 5 6 6 8 8 8 9 9 9 9 10 10 10 11 11 10 11 10 10 10 9 9 9 8 7 6 5 5 4 4 4 5 5 6 6 7
22 20 18 16 14 12 10 7 4 4 4 4 4 5 5 5 6 7 7 8 8 8 8 9 9 9 9 10 10 10 10 10 10 10 9 9 8 8 7 7 5 5 5 5 6 6 7 7 8
26 24 22 20 18 15 12 9 5 5 5 4 3 4 3 4 5 6 6 7 7 7 8 8 8 8 8 8 9 9 9 9 9 10 10 10 9 8 8 7 6 6 6 6 7 7 8 8 9
29 27 25 23 20 17 14 12 8 7 7 5 4 3 2 3 4 5 5 5 6 6 7 7 8 8 8 8 8 9 8 8 8 8 9 9 9 9 8 7 7 7 8 8 8 8 9 9 10
30 28 27 24 22 19 17 14 10 8 7 6 6 4 3 3 4 4 4 4 5 5 6 7 8 8 8 8 8 8 8 8 8 8 8 9 9 9 9 8 8 8 9 9 9 9 9 10 11
30 30 29 26 24 22 20 16 12 10 8 7 7 6 5 4 4 5 4 4 4 4 5 6 7 8 7 7 8 8 9 8 8 8 9 9 10 10 9 9 10 10 10 10 11 11 11 12 12
32 31 30 28 26 25 22 18 14 12 10 9 9 8 6 5 5 5 5 4 4 4 4 5 7 7 8 7 7 8 8 8 8 9 9 9 10 10 10 10 11 11 12 12 12 13 13 13 12
32 32 32 30 28 26 24 20 16 14 13 11 10 9 7 7 6 6 6 5 4 4 5 5 6 7 7 8 8 8 9 8 9 9 10 10 11 11 11 11 11 12 13 13 13 13 13 13 13
33 32 31 30 29 27 26 22 18 15 13 12 11 10 9 8 8 8 7 6 5 5 5 5 6 7 7 8 8 8 9 9 9 10 11 11 11 11 12 12 13 13 14 13 13 14 14 14 14

GEFSSGP_500_meanwind_222.txt.gz
Wind_Speed
18 18 18 18 19 17 16 17 17 17 15 15 14 13 13 12 12 11 11 10 9 7 7 8 9 10 10 9 10 11 12 12 11 11 12 12 13 14 14 13 13 12 12 12 12 12 12 13 12
18 18 17 19 17 16 16 17 18 17 16 15 15 14 14 13 12 11 11 10 9 8 8 8 9 10 9 9 10 10 11 11 12 12 12 12 13 14 14 13 13 12 12 12 12 12 12 12 12
18 18 18 18 16 16 17 17 18 18 17 16 16 15 14 14 13 11 11 11 10 9 8 8 9 10 10 10 10 10 11 11 11 12 12 12 13 14 14 13 13 13 12 12 12 12 12 12 12
18 18 18 17 16 17 17 18 19 19 19 17 16 15 15 14 13 12 11 10 9 9 9 8 8 10 10 10 10 10 10 11 10 10 11 11 12 13 14 13 13 13 12 12 12 11 11 11 11
17 18 17 16 16 17 18 18 19 20 20 18 17 17 15 15 13 12 11 10 9 9 9 8 8 9 9 10 10 10 10 10 10 10 11 11 11 12 12 13 12 12 12 13 12 11 11 10 11
17 17 15 15 16 17 18 19 20 20 20 19 18 17 16 15 14 13 11 10 9 9 8 8 8 8 9 9 9 9 9 9 9 9 10 11 11 11 11 12 12 11 11 12 11 11 11 11 11
16 15 13 14 16 17 18 18 20 20 20 19 18 17 16 16 15 13 12 11 10 9 8 8 8 8 9 9 9 8 8 9 9 10 10 10 10 10 10 11 11 11 11 11 11 10 10 11 11
15 14 13 14 15 16 17 18 19 20 20 19 18 17 16 16 15 14 13 11 11 10 9 8 8 8 8 9 9 9 8 9 9 9 9 9 10 10 10 10 10 10 10 9 10 9 10 10 10
14 13 13 14 15 16 17 18 19 19 19 19 18 17 16 15 15 14 13 12 11 11 10 9 9 9 9 9 10 10 9 8 8 8 8 9 9 10 9 9 9 9 9 9 9 9 9 8 8
13 11 12 13 15 16 17 18 19 19 19 19 18 17 16 15 15 14 14 13 12 11 11 11 11 11 10 10 10 9 9 9 9 8 8 8 8 8 8 8 8 8 8 8 8 8 7 7 6
11 10 11 12 14 16 17 18 18 19 19 18 17 17 17 16 15 14 14 13 12 12 12 12 12 12 11 10 10 9 9 9 8 8 8 7 7 7 7 7 7 7 8 8 7 7 6 6 5
9 10 10 11 13 15 17 18 18 18 18 17 17 17 16 15 14 14 14 13 13 12 12 12 12 12 11 10 9 9 9 8 8 8 7 7 6 6 7 7 6 6 6 6 6 5 5 5 4
8 9 9 10 12 14 15 17 18 18 17 17 17 17 16 15 14 13 13 13 13 12 11 11 11 11 11 11 10 9 8 8 7 7 6 6 6 6 6 7 6 6 6 6 5 4 4 4 4
7 7 7 8 10 12 14 15 17 17 17 16 16 16 16 14 14 13 13 12 12 11 11 11 11 10 10 10 10 9 9 8 7 6 5 5 4 4 5 5 5 5 4 4 4 3 3 3 3
5 6 6 7 8 10 11 14 16 16 16 16 15 15 15 14 13 12 13 12 12 11 11 11 10 10 10 10 10 9 9 8 7 6 5 4 4 4 3 3 3 4 3 3 3 3 2 2 3
4 4 4 5 6 7 9 11 13 14 15 14 14 14 13 12 12 11 11 12 12 11 11 11 10 10 10 10 10 9 9 8 7 6 6 5 4 3 2 3 3 2 2 2 2 2 2 2 2
3 2 1 2 4 5 7 9 10 11 13 13 13 13 12 12 11 11 10 11 11 11 11 11 10 10 10 9 9 9 9 8 8 8 7 6 5 3 3 3 3 2 1 1 1 1 2 2 3
7 5 2 1 2 3 5 7 8 9 10 11 12 12 12 11 11 10 10 10 10 10 10 10 10 10 10 9 9 9 9 8 8 8 8 7 6 5 4 3 3 2 1 1 0 1 1 2 3
9 7 5 3 1 2 3 5 6 7 8 9 10 10 10 10 10 9 9 9 10 10 10 10 10 9 9 9 9 9 9 8 8 8 8 8 7 6 5 4 3 2 1 1 0 1 1 2 3
11 9 7 5 3 1 2 3 5 6 6 7 8 8 9 9 8 8 8 8 8 9 9 9 9 9 9 9 9 9 8 8 8 8 8 8 7 6 5 4 4 3 3 1 1 1 2 2 3
13 11 10 7 5 3 3 3 4 5 5 6 7 7 7 8 8 7 7 7 7 8 8 8 8 8 8 8 8 8 8 8 8 7 7 7 7 7 5 4 3 2 2 2 2 2 3 3 4
15 13 12 9 7 6 4 4 6 5 5 6 6 5 6 7 8 7 6 6 7 7 7 8 7 7 8 8 8 7 8 8 7 6 6 7 7 6 6 4 3 3 3 3 3 4 4 5 5
18 16 14 12 10 8 7 5 6 6 6 6 5 5 5 6 7 6 6 6 7 7 7 7 7 7 7 7 7 7 7 7 7 7 6 6 6 6 6 5 4 3 3 3 4 5 6 6 7
21 18 17 15 12 11 10 7 7 7 7 6 5 5 5 5 6 5 5 5 6 6 6 6 6 7 7 7 7 6 6 6 7 7 7 6 5 5 6 5 5 4 4 4 5 6 7 7 8
24 20 18 16 15 14 12 10 8 8 7 6 6 6 6 6 5 5 5 5 5 5 5 5 6 6 6 6 6 6 5 5 5 6 7 7 6 6 6 6 6 6 6 6 7 7 8 8 9
26 23 21 18 16 15 15 11 9 9 8 7 6 6 6 6 6 5 5 5 5 4 4 5 5 6 6 6 6 6 5 5 5 5 5 6 6 6 7 7 7 7 7 7 8 9 9 10 11
29 27 24 21 20 17 16 14 11 11 10 8 7 6 6 6 6 6 6 6 5 5 4 5 5 5 6 6 5 5 6 5 5 5 5 6 6 6 7 7 7 8 8 9 9 10 10 11 12
31 29 28 25 22 20 18 16 13 12 11 10 9 8 8 8 8 7 7 6 6 5 5 5 4 5 5 6 6 5 6 5 5 6 6 6 7 7 8 8 9 9 9 10 10 11 11 12 12
31 30 30 27 25 22 18 17 16 14 13 12 11 10 10 9 9 8 8 7 7 6 6 6 5 5 6 6 6 6 6 6 6 6 6 7 8 8 9 9 10 10 10 11 11 11 12 12 13
31 30 30 29 27 24 21 18 18 15 14 14 13 12 12 11 10 9 9 8 8 7 7 7 6 5 6 7 7 7 7 7 7 7 8 8 9 9 9 10 10 11 11 11 11 12 13 13 14

GEFSSGP_500_meanwind_228.txt.gz
Wind_Speed
19 20 21 21 21 15 12 12 11 10 9 8 8 7 7 6 7 7 8 8 7 7 7 7 7 6 6 6 5 5 6 7 7 8 9 10 12 12 12 12 11 10 11 11 10 10 11 12 12
19 20 22 22 16 13 13 12 12 12 10 9 9 9 8 8 8 8 8 8 8 7 7 8 7 7 7 6 6 6 6 6 7 9 10 10 11 12 11 10 9 9 10 11 10 11 12 12 12
21 22 21 16 11 12 13 13 12 12 12 11 11 10 9 9 8 8 8 8 9 8 8 8 8 7 7 7 6 6 6 6 7 9 10 10 10 10 10 10 9 10 10 11 11 12 12 12 12
22 22 19 13 12 14 14 14 13 13 12 12 11 11 10 10 9 9 9 9 9 9 8 8 8 7 6 6 6 6 6 6 6 8 10 10 10 9 9 9 9 10 10 10 10 11 12 12 11
22 19 14 13 14 14 14 14 14 14 13 13 13 13 12 11 10 10 9 9 9 9 8 8 8 7 6 6 6 5 6 6 6 7 8 9 10 10 9 9 9 9 10 10 11 11 11 12 11
20 16 12 13 14 14 15 14 14 14 14 14 14 14 14 13 12 11 10 10 10 9 8 8 7 7 6 6 6 6 6 7 6 6 8 8 9 10 9 9 9 10 11 11 11 11 11 11 11
19 12 11 12 13 13 14 14 14 14 14 15 15 15 14 14 13 12 11 11 11 10 9 8 7 8 7 7 7 7 6 7 7 6 8 8 9 9 9 9 9 10 10 10 10 10 10 10 10
14 10 9 10 11 12 13 14 15 15 14 15 15 15 15 15 14 14 13 12 12 11 10 9 8 8 8 8 8 7 7 7 7 7 7 7 8 8 9 9 9 10 10 10 10 9 9 9 9
10 8 6 7 10 12 12 13 14 15 15 15 15 15 15 15 15 15 14 13 12 12 12 12 10 9 8 8 8 7 7 7 7 7 7 6 6 7 7 8 8 9 9 8 8 8 9 8 7
6 5 4 7 9 11 12 13 14 16 16 15 15 15 15 15 15 15 14 14 13 13 12 12 11 10 9 8 8 7 6 6 6 6 6 6 6 7 7 7 8 8 8 7 7 7 7 7 6
5 5 6 8 10 12 13 14 15 15 16 15 15 15 15 15 15 15 15 14 13 12 11 11 11 10 10 9 9 8 7 6 6 6 6 6 6 7 7 7 8 7 7 6 6 5 5 5 5
5 6 7 8 10 12 13 14 14 15 15 16 15 15 15 15 15 15 15 14 13 12 12 11 10 10 10 9 9 9 7 7 7 7 7 7 6 6 6 7 6 6 6 5 5 5 4 4 4
3 6 8 9 10 12 13 14 14 14 15 16 16 16 15 15 15 15 15 14 14 13 12 12 11 11 10 10 10 10 9 8 7 7 6 6 6 5 6 6 6 6 6 5 4 4 4 3 3
4 5 7 9 10 10 12 13 14 15 15 15 16 16 16 15 15 15 14 14 14 13 12 12 11 11 11 10 10 10 9 9 8 6 6 5 5 5 5 5 5 5 5 4 4 3 3 2 2
3 5 5 8 9 10 11 12 13 14 14 15 16 16 16 15 15 14 14 13 13 13 12 11 11 10 10 10 10 10 9 8 7 6 6 6 5 4 5 5 5 4 3 3 3 2 2 1 1
2 3 3 6 8 8 9 10 12 14 14 15 15 15 15 15 15 14 14 13 13 12 12 11 10 10 10 10 10 10 9 9 8 8 7 7 6 6 5 5 4 4 3 2 2 1 1 0 1
3 2 2 6 6 7 7 8 10 13 13 14 14 14 14 14 14 14 13 13 13 12 12 11 11 10 10 9 9 9 9 10 10 10 9 8 7 7 6 5 4 3 2 2 1 1 0 1 2
5 4 4 6 6 6 6 8 9 12 13 13 14 14 13 13 14 14 13 12 12 12 12 12 11 11 10 10 9 9 9 9 10 10 9 8 8 7 6 5 5 3 2 2 1 2 2 2 2
6 6 6 6 7 7 7 6 8 11 12 12 12 13 13 13 13 13 13 12 12 11 11 12 11 11 10 10 9 9 9 9 10 10 9 8 7 6 6 5 4 4 4 3 3 3 3 3 3
9 8 7 8 8 6 7 6 6 8 11 11 12 12 12 12 12 11 12 12 11 11 10 10 11 10 10 10 9 9 9 9 9 9 8 8 7 6 6 5 4 3 3 3 3 3 3 4 4
13 10 10 10 8 6 8 10 7 7 9 10 10 11 11 11 11 12 12 11 10 10 10 10 10 10 10 10 9 9 8 8 9 9 8 8 7 6 5 5 4 3 3 3 3 3 4 5 6
14 13 12 11 9 7 7 11 9 7 8 9 10 10 10 9 9 10 11 10 10 10 10 10 10 10 10 9 9 8 8 8 8 8 7 7 6 6 5 5 4 4 3 3 4 4 5 6 6
17 16 14 13 11 9 8 10 15 8 8 8 9 9 9 8 8 9 9 10 10 9 9 9 10 9 10 9 9 8 7 8 7 7 7 6 6 6 5 5 4 4 5 5 5 6 6 7 7
19 17 15 14 13 13 10 11 13 12 11 8 8 8 8 7 7 8 9 9 9 9 9 9 9 9 9 9 9 8 8 8 8 7 7 6 5 5 5 5 5 5 5 6 7 7 8 8 8
21 18 15 14 15 15 11 11 13 11 11 10 9 7 6 6 6 7 8 8 8 8 8 8 8 9 9 9 8 8 8 8 8 7 7 7 6 6 5 5 6 6 6 7 8 8 8 8 9
23 21 19 17 15 15 12 12 12 11 12 11 9 7 6 5 5 6 7 7 7 7 8 8 8 8 8 8 8 8 8 7 7 7 7 7 7 7 7 7 7 7 8 9 9 9 9 9 10
25 23 21 20 19 19 16 14 13 13 13 12 10 8 8 7 7 7 7 7 6 7 7 7 8 7 7 8 8 8 8 8 8 7 7 7 8 8 8 8 8 9 9 10 10 10 10 10 10
27 24 22 23 23 20 18 16 15 14 14 12 12 11 10 9 8 8 8 7 7 7 7 7 7 7 7 7 7 8 8 8 8 8 8 8 8 8 9 9 9 10 10 11 11 11 11 10 10
27 27 26 25 24 21 19 17 15 14 14 12 13 13 12 11 9 9 8 8 7 7 7 7 7 8 7 7 8 8 9 9 9 9 9 9 9 9 9 9 10 10 11 11 12 12 12 11 11
26 27 26 26 25 24 20 18 16 14 13 13 13 14 14 13 11 10 9 8 8 8 8 8 8 8 8 8 8 9 9 10 10 10 10 9 9 10 10 10 11 11 12 13 13 13 12 12 13

GEFSSGP_500_meanwind_234.txt.gz
Wind_Speed
21 21 20 20 22 21 19 19 19 18 16 15 15 14 13 12 11 10 9 9 10 9 9 8 8 8 9 8 7 7 8 8 8 8 8 9 9 10 10 10 10 10 9 9 10 10 11 12 12
21 21 21 23 23 22 21 20 19 17 16 16 14 13 12 11 11 10 10 10 11 10 9 8 8 9 9 9 9 8 9 8 8 8 8 9 9 10 10 10 10 10 9 9 10 11 12 12 12
21 21 21 23 22 22 22 21 20 19 17 16 15 13 12 11 11 10 10 10 11 10 9 8 8 9 9 9 9 9 8 8 8 8 8 9 9 10 10 10 10 10 10 10 10 12 12 12 12
20 21 22 23 23 23 23 21 21 20 18 17 16 14 13 12 11 11 11 11 11 11 10 9 9 9 9 9 8 8 8 9 9 9 9 9 10 10 9 10 10 10 10 10 10 11 12 12 12
18 19 21 22 23 23 23 22 21 19 18 18 16 15 13 13 13 12 12 12 12 11 10 10 9 9 9 9 9 9 8 9 9 9 9 10 10 9 9 9 10 10 9 11 12 12 12 12 11
17 17 20 21 22 23 23 22 21 18 18 18 17 16 15 14 14 14 13 12 13 12 10 10 9 9 9 9 9 9 8 9 9 9 9 9 10 9 9 9 9 10 10 12 12 12 11 11 10
16 16 18 19 20 21 22 21 20 18 18 18 18 17 17 16 15 15 15 14 14 13 11 11 10 9 9 9 8 8 8 8 8 9 9 8 8 8 9 8 9 9 10 10 12 12 11 11 10
15 16 17 19 19 21 21 20 19 18 18 18 18 18 17 17 16 15 15 14 14 14 14 13 11 10 10 9 9 8 8 8 8 8 9 8 8 8 8 8 8 9 10 10 11 11 11 10 9
14 14 16 18 19 20 20 19 19 19 19 19 19 18 17 17 17 16 15 14 14 14 14 13 12 11 10 9 9 8 8 8 8 8 8 8 8 9 9 9 9 9 9 9 9 9 9 9 9
12 13 15 17 18 19 19 18 19 20 20 20 19 18 17 17 17 17 15 15 13 13 13 13 12 11 10 10 9 8 8 8 7 7 6 7 8 8 8 9 9 9 9 8 8 8 8 8 7
10 12 14 15 17 18 18 18 19 20 20 19 19 18 18 17 17 17 16 16 15 14 13 12 12 11 11 10 9 9 9 8 8 7 7 7 8 8 8 8 8 8 7 7 6 7 6 6 6
8 11 14 16 17 18 19 19 20 20 19 18 18 18 17 17 17 17 17 16 16 15 14 13 13 11 10 10 10 9 9 8 8 8 8 8 7 7 7 7 7 6 6 6 5 5 5 6 5
8 10 12 14 16 18 19 19 19 19 19 18 17 17 17 17 17 17 17 16 15 15 14 14 13 13 12 11 10 10 10 9 9 9 9 8 7 7 7 7 6 5 5 5 5 5 5 4 4
7 9 10 12 14 17 17 17 18 18 18 17 17 16 17 17 17 17 17 16 15 14 14 14 13 13 13 12 11 10 10 9 9 8 8 8 7 7 7 7 6 5 5 5 4 3 4 3 3
6 7 9 11 12 14 14 14 16 17 17 17 16 16 17 17 17 16 16 15 15 14 13 13 13 13 12 12 12 11 10 9 9 8 8 8 8 7 7 7 6 5 4 4 3 3 3 3 2
3 4 6 7 9 12 13 12 13 15 16 16 15 16 16 16 16 16 15 15 14 14 14 13 13 13 12 12 12 12 10 9 9 8 8 8 8 8 7 6 6 4 4 3 3 2 2 2 2
4 2 2 3 6 10 11 11 12 13 14 15 15 15 15 15 15 15 15 15 14 13 13 13 12 12 12 12 12 12 11 10 10 9 8 8 8 8 7 5 5 4 3 2 2 2 1 1 1
3 2 3 1 3 7 9 9 9 11 12 13 14 14 15 14 14 14 14 14 14 13 13 12 12 12 12 11 11 11 11 10 9 9 9 8 8 7 7 5 4 3 3 2 2 1 1 1 0
5 3 1 0 2 5 7 7 8 9 11 11 12 13 14 13 13 13 13 13 12 12 12 11 11 11 11 10 10 10 10 9 9 8 8 8 7 7 6 5 4 4 3 2 2 2 1 1 1
6 6 4 2 3 5 6 6 7 7 9 9 10 10 12 12 12 12 12 11 11 11 11 11 11 11 10 10 9 9 9 9 8 8 8 7 6 5 4 5 4 4 3 3 2 2 2 2 2
9 7 7 6 6 7 7 7 7 5 6 7 8 9 9 10 10 10 10 10 10 10 10 10 10 10 9 9 9 8 8 8 8 7 7 6 6 5 4 4 4 4 3 3 3 3 3 3 3
12 10 10 10 9 9 10 8 4 5 5 6 6 7 7 8 8 8 8 9 9 9 10 10 9 9 9 9 9 8 8 7 7 6 5 5 5 5 4 4 3 3 3 3 3 4 4 4 4
15 13 13 13 13 13 13 11 7 6 5 6 5 4 5 6 6 6 7 8 8 9 9 9 9 9 9 8 7 7 7 7 7 6 5 4 4 4 4 4 3 3 3 4 4 5 5 4 4
18 17 17 16 16 16 14 14 11 9 7 5 3 3 3 4 5 5 5 6 6 7 8 8 8 8 8 8 7 6 6 6 7 7 6 4 4 4 4 4 3 3 4 4 5 6 6 6 6
21 20 19 18 18 16 14 14 12 8 7 5 4 3 2 3 3 4 4 5 5 6 6 7 7 7 7 7 7 7 6 6 6 7 7 6 4 4 4 4 4 4 4 5 5 6 6 6 6
23 22 21 19 18 16 16 15 12 9 8 7 5 3 2 2 2 2 3 3 4 5 5 6 6 7 7 6 6 6 6 5 5 5 6 6 5 5 4 4 4 4 4 5 5 6 7 7 7
24 25 23 22 20 19 17 14 12 10 9 8 6 3 2 2 2 1 1 2 3 4 4 5 5 6 6 6 5 5 5 5 5 5 5 5 5 5 5 5 5 5 6 6 6 6 7 7 7
26 25 25 25 23 21 19 16 13 11 9 8 7 5 5 4 3 2 1 2 3 3 4 4 5 5 5 5 5 4 4 5 5 6 5 5 5 5 5 6 6 7 7 7 7 7 8 8 8
27 27 28 26 25 24 21 18 14 13 12 11 9 8 7 6 4 3 2 2 3 3 4 4 4 4 4 4 5 5 4 5 5 6 6 6 5 6 6 7 7 8 8 8 8 8 9 9 9
28 27 28 28 27 25 24 21 16 15 13 12 11 8 7 7 6 5 4 4 4 4 4 4 4 5 4 4 5 5 5 5 6 6 7 7 6 7 7 7 8 8 9 9 10 9 9 10 10